GRARBER Weather Reports


Display with metric or nautical units.
time (UTC)temp
F
wind
direction
speed
MPH
gust
MPH
rain 1hr
in
rain 24hr
in
rain mn
in
humidity
%
barometer
mb
20260507041857 37 230 24.0 31.0 0.00 0.00 0.00 99
20260507031655 37 230 25.0 0.0 0.00 0.00 0.00 99
20260507021653 39 230 22.0 29.0 0.00 0.00 0.00 99
20260507011754 41 220 18.0 28.0 0.00 0.00 0.00 99
20260507001655 41 220 18.0 28.0 0.00 0.00 0.00 99
20260506231655 41 230 16.0 23.0 0.00 0.00 0.00 99
20260506221855 43 240 13.0 0.0 0.00 0.00 0.00 99
20260506211655 43 230 28.0 36.0 0.00 0.00 0.00 99
20260506201656 43 230 26.0 33.0 0.00 0.00 0.00 86
20260506191710 45 260 17.0 26.0 0.00 0.00 0.00 75
20260506181711 43 260 18.0 26.0 0.00 0.00 0.00 99
20260506171654 50 310 8.0 0.0 0.00 0.00 0.00 81
20260506161855 52 340 8.0 0.0 0.00 0.00 0.00 76
20260506151655 54 340 8.0 0.0 0.00 0.00 0.00 71
20260506141655 54 170 5.0 0.0 0.00 0.00 0.00 58
20260506131655 55 170 8.0 0.0 0.00 0.00 0.00 58
20260506121655 55 170 8.0 0.0 0.00 0.00 0.00 54
20260506111656 55 190 9.0 16.0 0.00 0.00 0.00 54
20260506101856 54 190 6.0 0.0 0.00 0.00 0.00 58
20260506091655 46 160 7.0 0.0 0.00 0.00 0.00 81
20260506081655 45 180 9.0 0.0 0.00 0.00 0.00 93
20260506071656 43 210 7.0 14.0 0.00 0.00 0.00 99
20260506061656 43 210 10.0 0.0 0.00 0.00 0.00 99